Wind_Speed
28 27 27 27 29 33 40 44 44 40 39 36 34 58 68 74 85 93 93 92 89 84 63 77 61 58 47 60 61 56 54 53 50 49 47 45 43 42 41 41 39 35 31
28 29 29 29 30 30 36 39 38 34 29 31 33 45 62 66 76 89 93 96 93 87 55 74 68 66 60 57 64 62 62 50 53 49 47 47 46 43 43 43 39 37 31
30 31 33 33 34 35 36 39 41 39 35 31 34 36 53 59 67 81 92 97 98 91 84 69 76 65 68 65 67 63 62 58 55 52 48 44 43 39 44 42 39 36 33
32 33 34 34 36 38 38 38 41 42 40 38 34 36 44 57 61 74 89 96 100 97 91 77 74 73 66 69 72 69 58 62 56 53 47 46 43 41 41 39 37 37 34
33 33 34 35 36 38 40 40 39 41 44 42 40 37 40 52 60 66 81 95 101 94 89 83 74 75 71 68 70 73 67 62 58 51 45 42 48 48 46 44 40 38 35
34 35 35 36 38 37 38 40 43 47 48 46 44 44 41 44 59 65 76 92 101 104 96 87 66 81 87 79 74 71 68 67 58 53 52 46 46 43 46 44 43 44 38
34 36 37 35 34 37 38 38 41 46 52 53 51 46 52 48 48 66 72 87 101 104 103 97 80 79 86 80 77 75 69 65 59 57 51 51 50 52 49 47 44 43 40
39 40 37 37 39 43 44 47 50 53 52 59 61 58 51 55 55 59 71 83 98 106 108 108 90 77 79 89 86 77 73 65 61 57 54 53 52 52 48 47 46 44 41
46 44 44 46 46 49 53 57 55 61 61 67 63 66 64 58 58 57 71 76 97 108 106 103 99 87 81 93 85 78 75 71 62 58 57 55 52 52 51 48 48 46 40
52 44 49 51 55 61 59 58 64 55 55 53 65 69 72 69 65 66 64 77 94 110 121 106 104 87 78 83 87 80 78 71 68 59 60 58 56 53 51 50 49 46 39
62 48 51 57 61 64 60 64 57 49 49 51 45 62 70 73 68 69 66 79 90 109 117 107 95 85 73 87 91 92 80 73 73 68 63 61 59 54 52 51 49 46 41
71 59 55 59 65 63 60 61 53 47 56 51 47 44 67 72 67 71 74 73 90 107 118 119 118 95 73 79 81 85 80 80 72 74 68 65 61 58 55 52 49 47 43
76 66 60 66 71 66 65 59 48 53 52 50 44 44 62 70 66 71 75 71 90 105 119 122 121 115 71 65 63 86 83 82 75 76 71 67 62 58 55 52 50 48 44
81 72 65 70 75 69 73 61 51 45 40 39 39 47 56 64 66 75 76 76 87 104 116 120 125 115 106 73 69 80 86 81 81 75 72 66 61 56 54 52 52 50 45
83 75 68 74 74 76 76 67 46 38 32 28 31 37 54 64 68 77 78 80 82 99 111 114 122 110 111 91 69 62 86 82 79 75 72 66 61 53 54 54 53 50 46
84 79 71 75 78 76 76 69 44 31 27 27 33 37 46 61 68 79 84 76 78 96 107 111 116 115 106 92 78 70 78 78 72 75 76 69 59 57 58 57 56 52 48
87 82 72 74 83 77 77 69 47 31 26 27 30 29 39 56 69 77 85 77 78 92 103 110 115 121 108 103 83 79 78 83 80 78 75 72 63 60 61 57 55 53 50
89 84 77 75 82 75 75 65 51 34 24 19 25 28 30 49 73 75 83 78 82 87 99 109 117 123 111 93 84 75 78 81 78 76 75 72 65 61 59 56 53 49 48
91 87 81 78 81 74 74 63 50 37 25 21 21 22 31 46 71 78 79 78 81 85 97 107 116 119 101 84 86 79 79 80 70 74 77 73 68 63 58 55 52 51 47
91 89 79 75 80 73 72 58 46 36 24 20 21 15 35 44 64 75 71 79 82 85 98 107 114 109 103 90 77 76 71 79 76 74 68 68 70 66 60 57 53 50 47
87 88 79 71 78 71 69 59 45 33 30 24 10 22 31 37 53 66 71 77 82 86 97 103 108 110 119 102 79 62 57 65 71 73 71 69 60 67 61 56 52 49 50
81 85 80 69 71 66 67 63 44 31 27 16 9 22 26 32 43 56 65 76 77 86 97 101 106 116 108 97 77 65 59 73 70 69 68 62 56 60 58 54 54 52 50
83 85 81 72 64 60 61 60 48 32 19 10 14 21 28 28 34 49 59 65 69 82 94 99 106 114 120 112 91 75 63 60 72 70 67 70 62 54 61 53 53 51 51
78 83 79 72 60 58 59 55 51 30 16 8 19 22 26 27 28 37 51 61 65 76 88 97 103 112 116 115 99 82 78 67 68 75 69 69 65 67 54 57 54 54 52
74 82 77 73 60 57 53 51 48 34 18 7 15 22 24 23 28 28 46 54 58 68 78 88 93 101 99 107 103 97 77 64 70 67 66 67 68 69 65 60 54 59 57
71 78 77 71 61 54 50 51 44 39 23 7 13 19 20 22 29 36 47 57 61 73 80 79 85 92 94 102 95 91 78 66 54 65 67 66 64 64 66 61 53 49 49
Wind_Direction
312 311 300 294 287 283 283 284 284 280 272 272 272 228 226 224 223 217 213 211 211 209 209 220 213 210 213 201 199 208 204 212 210 209 207 204 205 204 200 198 198 199 202
314 313 311 304 295 288 284 286 290 291 282 272 268 242 225 225 222 219 214 210 209 209 203 219 219 230 226 206 205 200 205 212 211 212 210 206 205 202 198 197 198 200 199
307 308 306 304 300 295 288 286 285 281 279 279 259 254 235 228 223 220 217 210 209 205 201 210 213 216 215 213 209 205 206 214 210 209 211 209 206 205 199 197 198 200 201
306 307 304 298 292 287 284 279 278 278 275 269 268 254 245 232 227 220 218 214 209 208 207 214 215 216 217 206 208 206 201 211 210 210 209 205 202 208 201 200 200 202 205
312 312 309 299 291 285 277 269 268 272 277 270 258 256 250 239 229 224 217 215 208 205 203 203 197 203 202 216 215 206 199 211 210 209 208 209 208 204 197 199 202 205 209
321 319 311 302 292 288 282 275 268 263 261 266 262 245 245 245 231 227 218 214 212 204 198 203 205 207 220 212 212 212 197 208 209 205 204 204 213 210 205 203 203 202 205
317 319 315 305 297 290 283 276 270 265 256 255 255 249 234 236 239 225 221 213 212 207 203 202 202 207 213 217 219 209 203 208 209 207 205 205 207 209 204 203 207 207 209
328 326 317 310 306 306 303 294 283 270 259 250 248 246 241 228 230 229 221 216 209 209 204 203 204 206 213 210 209 208 202 206 208 206 205 207 208 209 208 206 209 213 211
336 326 321 310 311 312 300 300 296 287 274 255 247 243 239 233 223 227 222 216 209 208 204 199 199 203 205 204 202 200 202 201 206 205 207 208 209 209 208 208 212 215 215
344 331 324 319 316 315 311 305 297 293 288 271 252 239 236 234 221 221 222 213 209 208 209 197 199 200 202 211 209 206 203 206 201 203 209 208 210 210 209 209 214 217 216
348 333 322 323 325 322 313 307 299 295 287 272 264 239 226 230 224 215 217 214 208 207 211 198 190 194 198 208 206 203 206 203 202 205 208 209 210 210 210 210 214 218 218
347 340 331 327 328 327 325 311 301 295 290 276 260 242 220 223 224 212 214 215 207 205 208 203 199 193 197 199 198 198 201 203 206 205 208 210 209 208 210 211 213 218 219
346 343 335 334 334 332 328 327 304 303 284 275 259 237 214 217 222 214 210 210 207 204 207 206 201 200 185 195 204 199 201 201 203 203 208 210 210 209 209 213 215 219 221
347 346 338 337 337 334 333 331 318 299 286 273 256 237 216 217 220 214 209 208 205 205 206 206 205 205 205 200 204 202 197 197 203 203 209 212 211 210 210 213 217 220 221
348 348 340 339 339 336 339 335 322 301 285 271 257 239 227 220 221 210 204 204 205 202 207 205 206 201 207 204 201 207 197 197 198 206 211 212 211 208 213 215 218 220 222
349 351 344 344 342 341 343 340 332 313 283 266 261 243 223 215 213 205 203 202 203 199 206 204 203 200 203 199 203 204 196 195 197 207 210 211 210 209 214 215 219 218 219
349 352 347 345 345 343 347 343 337 317 297 269 263 251 222 210 206 202 201 201 200 198 202 201 202 200 198 201 197 206 197 196 194 203 208 212 209 212 214 215 219 220 222
350 353 349 348 348 347 350 349 345 329 317 286 268 252 222 205 202 200 198 199 198 196 197 200 201 199 200 198 195 195 197 195 199 204 208 210 209 212 215 216 219 223 225
350 354 352 350 350 352 352 352 356 350 337 314 294 251 216 198 196 198 199 198 195 193 194 197 202 202 202 192 193 193 194 193 201 206 208 209 208 210 215 216 218 222 224
350 352 354 349 352 355 356 353 359 357 345 338 317 236 188 188 190 198 199 197 192 191 191 196 201 200 194 189 194 190 189 192 199 203 207 209 212 208 216 216 217 222 224
350 351 353 351 350 353 356 2 357 358 347 337 321 165 173 182 187 191 194 193 188 188 189 195 196 199 200 197 192 182 190 197 197 201 200 211 213 206 214 217 220 222 226
349 351 352 355 350 353 357 2 360 354 356 353 136 153 167 174 182 188 189 185 189 187 189 191 193 194 197 194 185 182 184 188 196 204 206 205 209 208 212 220 223 224 228
350 351 352 355 351 354 356 2 6 7 14 36 133 148 152 149 166 175 180 183 191 188 187 188 190 194 198 202 202 192 186 187 194 203 206 205 211 217 213 222 224 227 229
351 352 352 355 354 356 359 3 10 16 39 80 139 144 151 160 159 168 181 184 192 189 186 187 191 195 201 204 206 202 208 192 198 200 203 210 211 215 218 217 225 225 229
352 354 352 355 356 358 356 2 11 22 39 108 159 156 161 172 173 178 181 184 192 191 184 185 192 198 200 203 209 214 207 188 196 195 204 210 214 213 216 219 221 226 226
352 354 353 355 357 356 358 0 7 15 41 77 182 184 185 196 206 202 189 188 188 186 179 177 187 196 197 203 208 211 205 197 204 202 208 215 215 219 219 219 219 221 229
Height
5607 5604 5601 5597 5595 5591 5587 5584 5581 5578 5576 5575 5572 5573 5581 5592 5603 5618 5635 5651 5665 5683 5698 5709 5711 5724 5732 5741 5751 5758 5767 5775 5781 5788 5794 5801 5807 5813 5820 5826 5832 5839 5844
5601 5597 5594 5591 5587 5584 5579 5574 5570 5566 5565 5566 5565 5565 5570 5578 5588 5601 5616 5634 5650 5669 5684 5693 5705 5712 5727 5734 5742 5750 5759 5767 5774 5784 5790 5793 5800 5808 5814 5821 5828 5835 5841
5595 5590 5585 5581 5577 5573 5569 5565 5560 5558 5556 5556 5557 5556 5560 5567 5575 5585 5600 5617 5633 5651 5670 5680 5691 5701 5715 5724 5734 5742 5751 5760 5766 5775 5784 5792 5798 5808 5811 5818 5825 5832 5837
5588 5583 5578 5572 5567 5563 5559 5556 5552 5548 5546 5547 5547 5548 5550 5555 5561 5571 5584 5600 5617 5635 5654 5671 5679 5690 5701 5711 5720 5733 5742 5751 5760 5768 5779 5786 5794 5804 5810 5816 5822 5828 5833
5582 5576 5569 5562 5556 5551 5549 5546 5543 5539 5535 5533 5535 5537 5539 5542 5548 5556 5568 5584 5601 5618 5639 5654 5666 5677 5688 5699 5711 5722 5734 5743 5754 5764 5775 5785 5786 5794 5803 5808 5818 5824 5829
5573 5565 5558 5551 5546 5542 5538 5534 5530 5528 5523 5520 5519 5521 5524 5527 5533 5540 5552 5567 5585 5603 5622 5638 5653 5667 5677 5689 5701 5714 5724 5736 5746 5756 5763 5775 5785 5796 5799 5804 5810 5816 5822
5564 5556 5548 5542 5537 5531 5525 5519 5514 5511 5508 5505 5504 5504 5507 5511 5516 5524 5535 5550 5568 5586 5605 5622 5638 5652 5663 5677 5689 5702 5716 5728 5738 5748 5759 5765 5775 5780 5791 5798 5805 5812 5816
5557 5547 5539 5533 5525 5517 5510 5501 5495 5490 5485 5485 5483 5485 5488 5493 5500 5507 5517 5532 5552 5571 5586 5605 5623 5640 5650 5665 5678 5692 5706 5719 5730 5742 5751 5758 5768 5777 5786 5793 5800 5807 5811
5549 5539 5530 5520 5510 5500 5489 5480 5473 5465 5459 5457 5459 5462 5466 5472 5481 5488 5498 5513 5533 5554 5570 5588 5611 5624 5638 5651 5666 5681 5695 5709 5722 5733 5743 5750 5761 5770 5779 5787 5795 5802 5807
5538 5529 5518 5508 5495 5482 5471 5457 5445 5434 5425 5423 5423 5430 5439 5447 5459 5469 5479 5494 5513 5535 5550 5571 5594 5610 5625 5641 5653 5669 5685 5697 5712 5724 5733 5744 5753 5763 5773 5780 5788 5797 5803
5527 5515 5504 5493 5478 5462 5447 5432 5418 5407 5398 5393 5395 5398 5411 5421 5434 5449 5461 5475 5494 5516 5538 5556 5579 5599 5614 5629 5642 5659 5673 5687 5702 5715 5724 5736 5745 5757 5768 5773 5782 5790 5797
5516 5502 5488 5475 5459 5443 5425 5408 5394 5383 5372 5367 5369 5372 5386 5398 5412 5429 5442 5456 5476 5499 5520 5541 5562 5585 5601 5616 5632 5647 5662 5678 5693 5707 5716 5726 5738 5748 5760 5766 5776 5783 5792
5504 5487 5472 5458 5441 5423 5406 5385 5371 5359 5346 5342 5344 5351 5363 5377 5391 5408 5424 5438 5457 5481 5502 5528 5548 5570 5588 5605 5624 5639 5653 5669 5685 5698 5709 5718 5731 5742 5754 5761 5771 5778 5785
5492 5475 5458 5442 5424 5407 5385 5363 5349 5335 5327 5323 5325 5332 5342 5355 5370 5387 5405 5422 5439 5464 5487 5514 5533 5556 5575 5598 5614 5628 5643 5658 5676 5689 5701 5713 5724 5738 5748 5754 5764 5771 5778
5486 5466 5448 5430 5410 5390 5367 5345 5330 5319 5312 5310 5311 5316 5323 5334 5350 5368 5388 5405 5424 5447 5467 5497 5522 5545 5564 5590 5606 5618 5634 5651 5665 5681 5693 5706 5719 5731 5739 5747 5755 5763 5770
5479 5459 5437 5419 5398 5378 5355 5332 5316 5306 5301 5299 5298 5300 5308 5316 5333 5349 5372 5390 5408 5432 5454 5483 5511 5535 5555 5583 5598 5612 5626 5642 5657 5671 5685 5698 5709 5721 5730 5736 5746 5754 5762
5467 5448 5428 5410 5390 5368 5346 5323 5306 5296 5290 5288 5286 5287 5291 5301 5318 5334 5357 5378 5397 5421 5445 5473 5501 5525 5551 5575 5589 5607 5619 5635 5646 5660 5676 5689 5702 5713 5721 5729 5739 5747 5755
5459 5441 5423 5404 5383 5362 5340 5319 5300 5288 5281 5278 5277 5276 5279 5288 5306 5324 5346 5367 5386 5409 5436 5462 5492 5514 5544 5567 5581 5599 5613 5629 5642 5655 5670 5682 5695 5706 5716 5725 5733 5742 5750
5450 5431 5413 5397 5378 5358 5337 5318 5301 5287 5279 5274 5269 5266 5270 5279 5298 5320 5341 5359 5379 5401 5428 5456 5482 5508 5537 5560 5577 5590 5604 5618 5635 5649 5662 5674 5687 5699 5709 5719 5726 5733 5740
5447 5430 5414 5396 5377 5358 5340 5321 5305 5293 5284 5276 5267 5262 5268 5280 5297 5318 5336 5353 5375 5397 5420 5448 5478 5507 5533 5551 5569 5582 5594 5612 5627 5642 5655 5667 5680 5691 5702 5710 5717 5726 5732
5452 5432 5412 5394 5378 5360 5343 5325 5310 5299 5289 5280 5270 5270 5279 5289 5300 5316 5333 5351 5371 5391 5415 5443 5473 5500 5526 5543 5562 5571 5590 5608 5623 5638 5651 5662 5673 5684 5695 5702 5710 5719 5722
5465 5441 5417 5397 5381 5363 5348 5330 5315 5304 5295 5286 5282 5285 5292 5300 5309 5322 5337 5354 5373 5391 5413 5441 5469 5498 5516 5538 5552 5568 5585 5602 5619 5634 5647 5658 5668 5677 5686 5695 5703 5708 5714
5451 5432 5416 5400 5383 5366 5353 5336 5323 5312 5303 5299 5297 5300 5306 5312 5319 5331 5347 5364 5379 5392 5411 5439 5465 5490 5509 5532 5548 5563 5578 5594 5613 5627 5640 5653 5661 5670 5678 5686 5693 5700 5707
5456 5438 5421 5405 5389 5372 5358 5344 5332 5321 5314 5313 5313 5315 5320 5327 5334 5342 5355 5369 5383 5397 5416 5438 5463 5489 5505 5527 5541 5556 5571 5586 5602 5615 5629 5640 5650 5660 5668 5676 5684 5693 5699
5458 5439 5422 5407 5393 5378 5364 5352 5340 5332 5325 5325 5326 5327 5331 5338 5344 5352 5363 5375 5389 5405 5422 5441 5464 5484 5504 5523 5540 5555 5569 5585 5599 5612 5623 5632 5640 5650 5657 5668 5676 5683 5686
5461 5444 5425 5409 5397 5385 5371 5360 5347 5342 5334 5332 5334 5336 5338 5342 5348 5355 5364 5373 5386 5403 5419 5441 5464 5484 5501 5518 5536 5552 5563 5576 5594 5604 5615 5623 5633 5643 5652 5661 5670 5675 5681